Aberdeen, SD

7:17 AM CST on December 03, 2016 (GMT -0600)
Aberdeen Regional

Weather History for KABR - November, 2013

Change the Weather History Date:

Friday, November 8, 2013

  Actual Average Record
Temperature  
Mean Temperature 35 °F 34 °F  
Max Temperature 49 °F 44 °F 77 °F (1999)
Min Temperature 20 °F 23 °F -3 °F (1936)
Degree Days  
Heating Degree Days 30 31  
Month to date heating degree days 248 236  
Since 1 July heating degree days 1108 1127  
Cooling Degree Days 0 0  
Month to date cooling degree days 0 0  
Year to date cooling degree days 580 525  
Moisture  
Dew Point 34 °F    
Average Humidity 76    
Maximum Humidity 96    
Minimum Humidity 56    
Precipitation  
Precipitation 0.09 in 0.03 in 1.30 in (1977)
Month to date precipitation 0.09 0.24  
Year to date precipitation 21.01 20.71  
Snow  
Snow 0.00 in - - ()
Month to date snowfall 0.0  
Since 1 July snowfall 3.3  
Snow Depth 0.00 in    
Sea Level Pressure  
Sea Level Pressure 29.72 in    
Wind  
Wind Speed 12 mph (SW)    
Max Wind Speed 30 mph    
Max Gust Speed 37 mph    
Visibility 10 miles    
Events Rain    
T = Trace of Precipitation, MM = Missing Value Source: NWS Daily Summary

Daily Weather History Graph

Daily Weather History Graph

Search for Another Location

Airport or City:

Trip Planner

Search our weather history database for the weather conditions in past years. The results will help you decide how hot, cold, wet, or windy it might be!

Date:

Astronomy

Nov. 08, 2013 Rise Set
Actual Time 7:23 AM CST 5:11 PM CST
Civil Twilight 6:51 AM CST 5:42 PM CST
Nautical Twilight 6:16 AM CST 6:17 PM CST
Astronomical Twilight 5:41 AM CST 6:52 PM CST
Moon 12:20 PM CST (11/8) 10:34 PM CST (11/8)
Length of Visible Light 10h 50m
Length of Day
9h 47m
Waxing Crescent, 33% of the Moon is Illuminated
Nov 8
Waxing Crescent
Nov 9
First Quarter
Nov 17
Full
Nov 25
Last Quarter
Dec 2
New

Hourly Weather History & Observations

Time (CST) Temp. Windchill Dew Point Humidity Pressure Visibility Wind Dir Wind Speed Gust Speed Precip Events Conditions
12:53 AM 23.0 °F 14.7 °F 21.0 °F 92% 30.11 in 10.0 mi SE 6.9 mph - N/A   Clear
1:53 AM 26.1 °F 16.8 °F 23.0 °F 88% 30.06 in 10.0 mi SE 9.2 mph - N/A   Clear
2:53 AM 28.0 °F 20.8 °F 24.1 °F 85% 30.01 in 10.0 mi SE 6.9 mph - N/A   Clear
3:53 AM 32.0 °F 23.6 °F 27.0 °F 82% 29.94 in 10.0 mi SE 10.4 mph - N/A   Clear
4:53 AM 36.0 °F 26.3 °F 28.0 °F 73% 29.88 in 10.0 mi SE 16.1 mph 24.2 mph N/A   Mostly Cloudy
5:53 AM 37.9 °F 29.2 °F 28.9 °F 70% 29.83 in 10.0 mi SSE 15.0 mph 26.5 mph N/A   Partly Cloudy
6:53 AM 39.9 °F 31.1 °F 30.0 °F 68% 29.78 in 10.0 mi SSE 17.3 mph 25.3 mph N/A   Clear
7:53 AM 39.9 °F 30.8 °F 30.0 °F 68% 29.74 in 10.0 mi SSE 18.4 mph 28.8 mph N/A   Clear
8:53 AM 41.0 °F 31.4 °F 30.0 °F 65% 29.71 in 10.0 mi SSE 21.9 mph 34.5 mph N/A   Mostly Cloudy
9:53 AM 41.0 °F 30.5 °F 30.0 °F 65% 29.67 in 10.0 mi SSE 26.5 mph 33.4 mph N/A   Partly Cloudy
10:53 AM 41.0 °F 31.6 °F 30.0 °F 65% 29.65 in 10.0 mi South 20.7 mph 28.8 mph N/A   Overcast
11:53 AM 43.0 °F 35.7 °F 32.0 °F 65% 29.63 in 10.0 mi South 15.0 mph - N/A   Mostly Cloudy
12:53 PM 45.0 °F 38.9 °F 33.1 °F 63% 29.60 in 10.0 mi South 12.7 mph - N/A   Clear
1:53 PM 48.0 °F - 34.0 °F 58% 29.59 in 10.0 mi West 12.7 mph - N/A   Mostly Cloudy
2:53 PM 43.0 °F 39.5 °F 37.9 °F 82% 29.59 in 9.0 mi West 5.8 mph - 0.02 in Rain Light Rain
3:53 PM 43.0 °F 36.4 °F 37.9 °F 82% 29.62 in 10.0 mi West 12.7 mph - 0.00 in   Overcast
4:16 PM 42.8 °F 37.0 °F 39.2 °F 87% 29.59 in 10.0 mi West 10.4 mph - N/A   Overcast
4:53 PM 43.0 °F 38.2 °F 39.0 °F 86% 29.62 in 10.0 mi West 8.1 mph - N/A   Overcast
5:44 PM 42.8 °F 35.4 °F 39.2 °F 87% 29.60 in 10.0 mi West 15.0 mph - 0.01 in Rain Light Rain
5:53 PM 42.1 °F 34.9 °F 41.0 °F 96% 29.64 in 10.0 mi West 13.8 mph - 0.01 in Rain Light Rain
6:12 PM 42.8 °F 37.5 °F 41.0 °F 93% 29.62 in 8.0 mi WNW 9.2 mph - 0.03 in Rain Light Rain
6:21 PM 42.8 °F 36.6 °F 41.0 °F 93% 29.62 in 10.0 mi WNW 11.5 mph - 0.03 in Rain Light Rain
6:44 PM 42.8 °F 37.0 °F 41.0 °F 93% 29.63 in 9.0 mi WNW 10.4 mph - 0.05 in Rain Light Rain
6:53 PM 42.1 °F 35.7 °F 39.9 °F 92% 29.67 in 10.0 mi WNW 11.5 mph - 0.06 in Rain Light Rain
7:18 PM 42.8 °F 37.5 °F 39.2 °F 87% 29.65 in 10.0 mi WNW 9.2 mph - 0.00 in   Overcast
7:53 PM 42.1 °F 37.7 °F 39.9 °F 92% 29.68 in 10.0 mi West 6.9 mph - 0.00 in   Overcast
8:53 PM 39.9 °F 33.9 °F 37.9 °F 93% 29.70 in 10.0 mi West 9.2 mph - N/A   Scattered Clouds
9:53 PM 37.0 °F 31.6 °F 36.0 °F 96% 29.73 in 10.0 mi WSW 6.9 mph - N/A   Partly Cloudy
10:53 PM 37.9 °F 34.4 °F 36.0 °F 93% 29.73 in 10.0 mi WSW 4.6 mph - N/A   Mostly Cloudy
11:53 PM 36.0 °F 29.6 °F 34.0 °F 93% 29.75 in 10.0 mi WSW 8.1 mph - N/A   Scattered Clouds